This is the latest recevied weather packets stored in our database for station/object HI3LT-16. If no packets are shown the sender has not sent any weather packets the latest 10 day(s).
| Time | Temp. | Humidity | Pressure | Rain* | Wind** | Luminosity | Snow |
|---|---|---|---|---|---|---|---|
| 1777686041 | 26.11° C | 89% | 1015 hPa | 0 mm | - | - | - |
| 1777685434 | 26.11° C | 89% | 1015 hPa | 0 mm | - | - | - |
| 1777684833 | 26.11° C | 89% | 1014 hPa | 0 mm | - | - | - |
| 1777684231 | 26.11° C | 89% | 1014 hPa | 0 mm | - | - | - |
| 1777683630 | 27.22° C | 83% | 1014 hPa | 0 mm | - | - | - |
| 1777683028 | 27.22° C | 83% | 1014 hPa | 0 mm | - | - | - |
| 1777682425 | 27.22° C | 83% | 1014 hPa | 0 mm | - | - | - |
| 1777681824 | 27.22° C | 83% | 1014 hPa | 0 mm | - | - | - |
| 1777681223 | 27.22° C | 83% | 1014 hPa | 0 mm | - | - | - |
| 1777680621 | 26.11° C | 75% | 1014 hPa | 0 mm | - | - | - |
| 1777680020 | 28.33° C | 74% | 1014 hPa | 0 mm | - | - | - |
| 1777679417 | 28.33° C | 74% | 1014 hPa | 0 mm | - | - | - |
| 1777678815 | 28.33° C | 74% | 1014 hPa | 0 mm | - | - | - |
| 1777678214 | 28.33° C | 74% | 1014 hPa | 0 mm | - | - | - |
| 1777677611 | 28.33° C | 74% | 1013 hPa | 0 mm | - | - | - |
| 1777677009 | 28.33° C | 74% | 1013 hPa | 0 mm | - | - | - |
| 1777676408 | 30° C | 66% | 1013 hPa | 0 mm | - | - | - |
| 1777675807 | 30° C | 66% | 1013 hPa | 0 mm | - | - | - |
| 1777675204 | 30° C | 66% | 1013 hPa | 0 mm | - | - | - |
| 1777674603 | 30° C | 66% | 1013 hPa | 0 mm | - | - | - |
| 1777674000 | 30° C | 66% | 1012 hPa | 0 mm | - | - | - |
| 1777673398 | 30° C | 66% | 1012 hPa | 0 mm | - | - | - |
| 1777672797 | 31.11° C | 62% | 1012 hPa | 0 mm | - | - | - |
| 1777672196 | 31.11° C | 62% | 1012 hPa | 0 mm | - | - | - |
| 1777671594 | 30.56° C | 60% | 1012 hPa | 0 mm | - | - | - |
* Rain latest hour (hover to see other rain measurements)
** Current wind speed in m/s (hover to see current wind gust speed)